Location: Newark
(34.6283°N, 36.0776°E)
Time: 15:52:20
(UTC+00:00)

S-56A Canister/Altair - Pass Details

Date: 20 October 2019
Orbit: 634 x 2498 km, 38.9° (Epoch: 13 November)

Event Time Altitude Azimuth Distance (km) Brightness Sun altitude
Rises 00:06:59 0° 245° (WSW) 3,235 - -44.9°
Reaches altitude 10° 00:09:05 10° 245° (WSW) 2,447 - -44.5°
Maximum altitude 00:14:50 84° 158° (SSE) 1,079 - -43.4°
Exits shadow 00:17:57 40° 73° (ENE) 1,724 9.5 -42.8°
Drops below altitude 10° 00:23:38 10° 71° (ENE) 3,652 11.6 -41.7°
Sets 00:27:24 0° 71° (ENE) 4,945 12.5 -41.0°
